| time (UTC) | temp F | wind direction | speed MPH | gust MPH | rain 1hr in | rain 24hr in | rain mn in | humidity % | barometer mb |
| 20260906224530 | 0 | 360 | 4.0 | 17.0 | 0.00 | 0.00 | 0.00 | 1014.0 | |
| 20260906223035 | 0 | 9 | 2.0 | 7.0 | 0.00 | 0.00 | 0.00 | 1013.8 | |
| 20260906221519 | 0 | 360 | 0.0 | 6.0 | 0.00 | 0.00 | 0.00 | 1013.6 | |
| 20260906220019 | 0 | 360 | 2.0 | 7.0 | 0.00 | 0.00 | 0.00 | 1013.8 | |
| 20260906214520 | 0 | 43 | 3.0 | 7.0 | 0.00 | 0.00 | 0.00 | 1013.9 | |
| 20260906213007 | 0 | 360 | 1.0 | 9.0 | 0.00 | 0.00 | 0.00 | 1014.0 | |
| 20260906211501 | 0 | 360 | 2.0 | 8.0 | 0.00 | 0.00 | 0.00 | 1014.1 | |
| 20260906210107 | 0 | 360 | 2.0 | 12.0 | 0.00 | 0.00 | 0.00 | 1014.2 | |
| 20260906204559 | 0 | 360 | 2.0 | 10.0 | 0.00 | 0.00 | 0.00 | 1014.5 | |
| 20260906203049 | 0 | 44 | 3.0 | 14.0 | 0.00 | 0.00 | 0.00 | 1014.4 | |
| 20260906201559 | 0 | 360 | 2.0 | 14.0 | 0.00 | 0.00 | 0.00 | 1014.5 | |
| 20260906200042 | 0 | 360 | 6.0 | 13.0 | 0.00 | 0.00 | 0.00 | 1014.5 | |
| 20260906194536 | 0 | 360 | 3.0 | 10.0 | 0.00 | 0.00 | 0.00 | 1014.6 | |
| 20260906193032 | 0 | 360 | 3.0 | 10.0 | 0.00 | 0.00 | 0.00 | 1014.6 | |
| 20260906191527 | 0 | 360 | 3.0 | 13.0 | 0.00 | 0.00 | 0.00 | 1014.7 | |
| 20260906190026 | 0 | 360 | 3.0 | 9.0 | 0.00 | 0.00 | 0.00 | 1015.0 | |
| 20260906184530 | 0 | 360 | 4.0 | 8.0 | 0.00 | 0.00 | 0.00 | 1015.0 | |
| 20260906183020 | 0 | 360 | 4.0 | 11.0 | 0.00 | 0.00 | 0.00 | 1015.3 | |
| 20260906181515 | 0 | 360 | 3.0 | 9.0 | 0.00 | 0.00 | 0.00 | 1015.6 | |
| 20260906180006 | 0 | 360 | 3.0 | 10.0 | 0.00 | 0.00 | 0.00 | 1015.7 | |
| 20260906174501 | 0 | 360 | 4.0 | 9.0 | 0.00 | 0.00 | 0.00 | 1016.0 | |
| 20260906173113 | 0 | 360 | 5.0 | 10.0 | 0.00 | 0.00 | 0.00 | 1016.2 | |
| 20260906171553 | 0 | 360 | 4.0 | 10.0 | 0.00 | 0.00 | 0.00 | 1016.4 | |
| 20260906170048 | 0 | 360 | 4.0 | 14.0 | 0.00 | 0.00 | 0.00 | 1016.4 | |
| 20260906164545 | 0 | 360 | 3.0 | 11.0 | 0.00 | 0.00 | 0.00 | 1016.4 | |
| 20260906163041 | 0 | 360 | 6.0 | 10.0 | 0.00 | 0.00 | 0.00 | 1016.4 | |
| 20260906161535 | 0 | 86 | 3.0 | 8.0 | 0.00 | 0.00 | 0.00 | 1016.4 | |
| 20260906160034 | 0 | 36 | 2.0 | 7.0 | 0.00 | 0.00 | 0.00 | 1016.4 | |
| 20260906154527 | 0 | 35 | 2.0 | 8.0 | 0.00 | 0.00 | 0.00 | 1016.3 | |
| 20260906153028 | 0 | 360 | 1.0 | 3.0 | 0.00 | 0.00 | 0.00 | 1016.3 | |
| 20260906151518 | 0 | 360 | 1.0 | 5.0 | 0.00 | 0.00 | 0.00 | 1016.5 | |
| 20260906150017 | 0 | 18 | 0.0 | 3.0 | 0.00 | 0.00 | 0.00 | 1016.5 | |
| 20260906144516 | 0 | 19 | 0.0 | 4.0 | 0.00 | 0.00 | 0.00 | 1016.6 | |
| 20260906143011 | 0 | 19 | 0.0 | 0.0 | 0.00 | 0.00 | 0.00 | 1016.4 | |
| 20260906141600 | 0 | 326 | 0.0 | 0.0 | 0.00 | 0.00 | 0.00 | 1016.3 | |
| 20260906140059 | 0 | 326 | 0.0 | 0.0 | 0.00 | 0.00 | 0.00 | 1016.1 | |
| 20260906134555 | 0 | 326 | 0.0 | 0.0 | 0.00 | 0.00 | 0.00 | 1016.2 | |
| 20260906133106 | 0 | 326 | 0.0 | 0.0 | 0.00 | 0.00 | 0.00 | 1016.1 | |
| 20260906131549 | 0 | 326 | 0.0 | 0.0 | 0.00 | 0.00 | 0.00 | 1015.9 | |
| 20260906130049 | 0 | 326 | 0.0 | 0.0 | 0.00 | 0.00 | 0.00 | 1015.8 | |
| 20260906124535 | 0 | 326 | 0.0 | 0.0 | 0.00 | 0.00 | 0.00 | 1015.7 | |
| 20260906123038 | 0 | 326 | 0.0 | 0.0 | 0.00 | 0.00 | 0.00 | 1015.6 | |
| 20260906121526 | 0 | 326 | 0.0 | 0.0 | 0.00 | 0.00 | 0.00 | 1015.5 | |
| 20260906120025 | 0 | 326 | 0.0 | 0.0 | 0.00 | 0.00 | 0.00 | 1015.6 | |
| 20260906114525 | 0 | 326 | 0.0 | 3.0 | 0.00 | 0.00 | 0.00 | 1015.6 | |
| 20260906113014 | 0 | 326 | 0.0 | 0.0 | 0.00 | 0.00 | 0.00 | 1015.6 | |
| 20260906111509 | 0 | 326 | 1.0 | 2.0 | 0.00 | 0.00 | 0.00 | 1015.5 | |
| 20260906110005 | 0 | 326 | 1.0 | 3.0 | 0.00 | 0.00 | 0.00 | 1015.4 | |
| 20260906104502 | 0 | 326 | 0.0 | 4.0 | 0.00 | 0.00 | 0.00 | 1015.6 | |
| 20260906103057 | 0 | 326 | 0.0 | 3.0 | 0.00 | 0.00 | 0.00 | 1015.5 | |
| 20260906101553 | 0 | 326 | 1.0 | 4.0 | 0.00 | 0.00 | 0.00 | 1015.5 | |
| 20260906100050 | 0 | 326 | 1.0 | 4.0 | 0.00 | 0.00 | 0.00 | 1015.4 | |
| 20260906094558 | 0 | 326 | 2.0 | 4.0 | 0.00 | 0.00 | 0.00 | 1015.5 | |
| 20260906093053 | 0 | 326 | 1.0 | 4.0 | 0.00 | 0.00 | 0.00 | 1015.7 | |
| 20260906091535 | 0 | 326 | 0.0 | 0.0 | 0.00 | 0.00 | 0.00 | 1015.8 | |
| 20260906090047 | 0 | 326 | 0.0 | 5.0 | 0.00 | 0.00 | 0.00 | 1015.6 | |
| 20260906084533 | 0 | 326 | 1.0 | 4.0 | 0.00 | 0.00 | 0.00 | 1015.4 | |
| 20260906083033 | 0 | 326 | 0.0 | 4.0 | 0.00 | 0.00 | 0.00 | 1015.6 | |
| 20260906081519 | 0 | 326 | 0.0 | 4.0 | 0.00 | 0.00 | 0.00 | 1015.6 | |
| 20260906080014 | 0 | 326 | 0.0 | 2.0 | 0.00 | 0.00 | 0.00 | 1015.8 | |
| 20260906074528 | 0 | 326 | 0.0 | 3.0 | 0.00 | 0.00 | 0.00 | 1016.0 | |
| 20260906073005 | 0 | 326 | 0.0 | 0.0 | 0.00 | 0.00 | 0.00 | 1016.0 | |
| 20260906071601 | 0 | 326 | 1.0 | 4.0 | 0.00 | 0.00 | 0.00 | 1016.0 | |
| 20260906070056 | 0 | 326 | 0.0 | 3.0 | 0.00 | 0.00 | 0.00 | 1016.1 | |
| 20260906064553 | 0 | 326 | 2.0 | 5.0 | 0.00 | 0.00 | 0.00 | 1016.0 | |
| 20260906063053 | 0 | 326 | 0.0 | 5.0 | 0.00 | 0.00 | 0.00 | 1016.1 | |
| 20260906061549 | 0 | 326 | 2.0 | 5.0 | 0.00 | 0.00 | 0.00 | 1016.2 | |
| 20260906060039 | 0 | 326 | 1.0 | 9.0 | 0.00 | 0.00 | 0.00 | 1016.4 | |
| 20260906054539 | 0 | 360 | 1.0 | 7.0 | 0.00 | 0.00 | 0.00 | 1016.5 | |
| 20260906053033 | 0 | 360 | 4.0 | 9.0 | 0.00 | 0.00 | 0.00 | 1016.7 | |
| 20260906051530 | 0 | 95 | 2.0 | 9.0 | 0.00 | 0.00 | 0.00 | 1017.0 | |
| 20260906050022 | 0 | 142 | 3.0 | 7.0 | 0.00 | 0.00 | 0.00 | 1016.6 | |
| 20260906044518 | 0 | 360 | 2.0 | 9.0 | 0.00 | 0.00 | 0.00 | 1016.5 | |
| 20260906043016 | 0 | 360 | 5.0 | 10.0 | 0.00 | 0.00 | 0.00 | 1016.2 | |
| 20260906041512 | 0 | 360 | 4.0 | 15.0 | 0.00 | 0.00 | 0.00 | 1016.2 | |
| 20260906040005 | 0 | 360 | 1.0 | 10.0 | 0.00 | 0.00 | 0.00 | 1016.3 | |
| 20260906034600 | 0 | 149 | 5.0 | 14.0 | 0.00 | 0.00 | 0.00 | 1016.4 | |
| 20260906033056 | 0 | 360 | 1.0 | 4.0 | 0.00 | 0.00 | 0.00 | 1016.4 | |
| 20260906031552 | 0 | 360 | 1.0 | 5.0 | 0.00 | 0.00 | 0.00 | 1016.0 | |
| 20260906030051 | 0 | 360 | 2.0 | 7.0 | 0.00 | 0.00 | 0.00 | 1015.9 | |
| 20260906024605 | 0 | 360 | 3.0 | 7.0 | 0.00 | 0.00 | 0.00 | 1015.6 | |
| 20260906023039 | 0 | 360 | 3.0 | 8.0 | 0.00 | 0.00 | 0.00 | 1015.4 | |
| 20260906021534 | 0 | 360 | 3.0 | 7.0 | 0.00 | 0.00 | 0.00 | 1015.4 | |
| 20260906020032 | 0 | 360 | 3.0 | 12.0 | 0.00 | 0.00 | 0.00 | 1015.4 | |
| 20260906014540 | 0 | 360 | 3.0 | 16.0 | 0.00 | 0.00 | 0.00 | 1015.2 | |
| 20260906013025 | 0 | 360 | 6.0 | 12.0 | 0.00 | 0.00 | 0.00 | 1015.5 | |
| 20260906011517 | 0 | 360 | 4.0 | 9.0 | 0.00 | 0.00 | 0.00 | 1015.4 | |
| 20260906010034 | 0 | 360 | 3.0 | 9.0 | 0.00 | 0.00 | 0.00 | 1015.5 | |
| 20260906004509 | 0 | 360 | 3.0 | 9.0 | 0.00 | 0.00 | 0.00 | 1015.6 | |
| 20260906003005 | 0 | 360 | 3.0 | 9.0 | 0.00 | 0.00 | 0.00 | 1015.6 | |
| 20260906001607 | 0 | 360 | 3.0 | 11.0 | 0.00 | 0.00 | 0.00 | 1015.6 | |
| 20260906000056 | 0 | 360 | 2.0 | 14.0 | 0.00 | 0.00 | 0.00 | 1015.6 | |
| 20260905234552 | 0 | 360 | 4.0 | 10.0 | 0.00 | 0.00 | 0.00 | 1015.6 | |
| 20260905233048 | 0 | 269 | 1.0 | 9.0 | 0.00 | 0.00 | 0.00 | 1015.3 | |
| 20260905231545 | 0 | 360 | 0.0 | 5.0 | 0.00 | 0.00 | 0.00 | 1015.5 | |
| 20260905230039 | 0 | 360 | 0.0 | 4.0 | 0.00 | 0.00 | 0.00 | 1015.2 |